EW9439 Weather Reports


Display with metric or nautical units.
time (UTC)temp
F
wind
direction
speed
MPH
gust
MPH
rain 1hr
in
rain 24hr
in
rain mn
in
humidity
%
barometer
mb
20260502194555 67 268 0.0 0.0 0.00 0.00 0.00 48 1009.1
20260502194503 67 268 0.0 0.0 0.00 0.00 0.00 51 1009.1
20260502193055 66 313 0.0 1.0 0.00 0.00 0.00 49 1009.2
20260502193003 66 313 0.0 1.0 0.00 0.00 0.00 49 1009.2
20260502191604 67 320 0.0 0.0 0.00 0.00 0.00 48 1009.1
20260502191501 67 314 0.0 0.0 0.00 0.00 0.00 48 1009.2
20260502190050 67 338 0.0 0.0 0.00 0.00 0.00 49 1009.3
20260502184545 67 360 0.0 0.0 0.00 0.00 0.00 52 1009.1
20260502183053 66 277 0.0 0.0 0.00 0.00 0.00 54 1009.0
20260502181515 66 238 0.0 0.0 0.00 0.00 0.00 55 1009.2
20260502163029 66 117 0.0 0.0 0.00 0.00 0.00 62 1009.7
20260502161531 64 165 0.0 0.0 0.00 0.00 0.00 61 1009.9
20260502151555 59 103 0.0 0.0 0.00 0.00 0.00 70 1010.1
20260502123026 53 150 0.0 0.0 0.00 0.00 0.00 76 1009.0
20260502121516 53 150 0.0 0.0 0.00 0.00 0.00 75 1009.1
20260502114508 54 150 0.0 0.0 0.00 0.00 0.00 76 1008.3
20260502113035 54 150 0.0 0.0 0.00 0.00 0.00 76 1009.0
20260502111534 55 150 0.0 0.0 0.00 0.00 0.00 76 1009.3
20260502110040 55 150 0.0 0.0 0.00 0.00 0.00 74 1009.2
20260502104600 55 150 0.0 0.0 0.00 0.00 0.00 73 1008.8
20260502104501 55 150 0.0 0.0 0.00 0.00 0.00 72 1008.8
20260502103004 55 152 0.0 0.0 0.00 0.00 0.00 73 1008.7
20260502101503 55 199 0.0 0.0 0.00 0.00 0.00 73 1008.4
20260502091512 56 184 0.0 0.0 0.00 0.00 0.00 76 1008.2
20260502070105 56 184 0.0 0.0 0.00 0.00 0.00 86 1008.7
20260502064605 56 184 0.0 0.0 0.00 0.00 0.00 85 1009.2
20260502063054 57 184 0.0 0.0 0.00 0.00 0.00 85 1009.4
20260502061513 57 184 0.0 0.0 0.00 0.00 0.00 83 1009.4
20260502060018 57 184 0.0 0.0 0.00 0.00 0.00 82 1009.5
20260502054530 58 184 0.0 0.0 0.00 0.00 0.00 81 1009.4
20260502053019 58 184 0.0 0.0 0.00 0.00 0.00 80 1009.3
20260502051543 58 184 0.0 0.0 0.00 0.00 0.00 79 1009.3
20260502050045 58 184 0.0 0.0 0.00 0.00 0.00 78 1009.4
20260502044547 59 184 0.0 0.0 0.00 0.00 0.00 77 1009.5
20260502043015 59 184 0.0 0.0 0.00 0.00 0.00 78 1009.5
20260502041513 59 184 0.0 0.0 0.00 0.00 0.00 79 1009.7
20260502040012 59 184 0.0 0.0 0.00 0.00 0.00 80 1010.0
20260502034513 58 184 0.0 0.0 0.00 0.00 0.00 80 1010.1
20260502033014 58 184 0.0 0.0 0.00 0.00 0.00 81 1010.1
20260502031512 58 184 0.0 0.0 0.00 0.00 0.00 81 1010.3
20260502030016 59 184 0.0 0.0 0.00 0.00 0.00 81 1010.3
20260502024519 58 184 0.0 0.0 0.00 0.00 0.00 80 1010.4
20260502023025 59 184 0.0 0.0 0.00 0.00 0.00 79 1010.4
20260502021544 59 184 0.0 0.0 0.00 0.00 0.00 79 1010.4
20260502020052 59 184 0.0 0.0 0.00 0.00 0.00 79 1010.2
20260502014550 59 184 0.0 0.0 0.00 0.00 0.00 78 1010.1
20260502013058 59 184 0.0 0.0 0.00 0.00 0.00 78 1010.0
20260502011520 60 184 0.0 0.0 0.00 0.00 0.00 75 1009.7
20260502010005 60 184 0.0 0.0 0.00 0.00 0.00 74 1009.5
20260502004508 60 184 0.0 0.0 0.00 0.00 0.00 74 1009.6
20260502003030 61 184 0.0 0.0 0.00 0.00 0.00 73 1009.5
20260502001533 61 184 0.0 0.0 0.00 0.00 0.00 72 1009.6
20260502000056 62 184 0.0 0.0 0.00 0.00 0.00 70 1009.3
20260501234535 62 184 0.0 0.0 0.00 0.00 0.00 70 1009.1
20260501233036 62 184 0.0 0.0 0.00 0.00 0.00 68 1009.1
20260501231540 63 184 0.0 0.0 0.00 0.00 0.00 68 1009.3
20260501230040 63 184 0.0 0.0 0.00 0.00 0.00 67 1009.3
20260501224600 63 184 0.0 0.0 0.00 0.00 0.00 65 1009.2
20260501223046 64 184 0.0 0.0 0.00 0.00 0.00 64 1008.7
20260501221548 64 184 0.0 0.0 0.00 0.00 0.00 63 1008.6
20260501220042 64 184 0.0 0.0 0.00 0.00 0.00 62 1008.8
20260501214529 64 184 0.0 0.0 0.00 0.00 0.00 66 1009.1
20260501213029 64 184 0.0 0.0 0.00 0.00 0.00 63 1009.2
20260501211535 65 184 0.0 0.0 0.00 0.00 0.00 61 1009.4
20260501210035 65 184 0.0 0.0 0.00 0.00 0.00 61 1009.5
20260501204538 64 184 0.0 0.0 0.00 0.00 0.00 64 1010.1
20260501203040 64 184 0.0 0.0 0.00 0.00 0.00 61 1010.3
20260501201539 64 184 0.0 0.0 0.00 0.00 0.00 63 1010.4
20260501200047 64 184 0.0 0.0 0.00 0.00 0.00 61 1010.3